Regional Weather Roundup
Issued by NWS Cleveland, OH

Home | Current Version | Previous Version | Graphics & Text | Print | Product List | Glossary On
Versions: 1 2 3 4 5 6 7 8 9 10 11 12 13 14 15 16 17 18 19 20 21 22 23 24 25 26 27 28 29 30 31 32 33 34 35 36 37 38 39 40 41 42 43 44 45 46 47 48 49 50
666
ASUS41 KCLE 182300
RWRCLE
OHIO REGIONAL WEATHER ROUNDUP
NATIONAL WEATHER SERVICE WILMINGTON, OH
600 PM EST THU JAN 18 2018

NOTE: "FAIR" INDICATES FEW OR NO CLOUDS BELOW 12,000 FEET WITH NO
SIGNIFICANT WEATHER AND/OR OBSTRUCTIONS TO VISIBILITY.

OHZ001>008-015>018-024>027-034-035-043-044-190000-
   NORTHWEST OHIO

CITY           SKY/WX    TMP DP  RH WIND       PRES   REMARKS
DEFIANCE       FAIR      25  14  63 SW14      30.07F WCI  13
FINDLAY        FAIR      26  13  57 SW17      30.09F WCI  13
TOLEDO EXPRESS FAIR      26  16  65 SW14G21   30.05S WCI  14
TOLEDO EXEC    FAIR      24  15  68 SW15G23   30.07S WCI  11
LIMA           FAIR      26  14  60 SW16      30.10F WCI  14
$$

OHZ009>014-019>023-028>033-038-089-190000-
   NORTHEAST OHIO

CITY           SKY/WX    TMP DP  RH WIND       PRES   REMARKS
CLE-HOPKINS    FAIR      29  14  53 SW18G28   30.10S WCI  16
CLE-LAKEFRONT  FAIR      30  13  49 SW23G30   30.07S WCI  17
CUY CO. ARPT   NOT AVBL
LORAIN-ELYRIA  FAIR      24  10  55 SW16G26   30.08S WCI  11
ASHTABULA      FAIR      25  11  55 SW15      30.05S WCI  13
AKRON-CANTON   FAIR      25  11  55 SW16      30.09S WCI  12
WOOSTER        NOT AVBL
MANSFIELD      FAIR      23  12  62 S18       30.09F WCI   9
YOUNGSTOWN     FAIR      25  11  55 SW13      30.06S WCI  14
$$

OHZ042-051>053-060>062-070>072-077>081-190000-
  SOUTHWEST OHIO

CITY           SKY/WX    TMP DP  RH WIND       PRES   REMARKS
CINC-COVINGTON FAIR      28  14  55 S8        30.22F WCI  20
CINC-LUNKEN    FAIR      28  15  58 S13       30.27S WCI  17
HAMILTON       FAIR      30  14  51 VRB7G17   30.24S WCI  23
DAYTON         NOT AVBL
WRIGHT-PAT AFB FAIR      27   7  42 S15       30.18S WCI  15
DAYTON GENERAL FAIR      30  13  49 SW14G24   30.18F WCI  19
WILMINGTON     FAIR      24  14  65 SW16      30.19S WCI  11
$$

OHZ036-037-039>041-045>050-054>059-063>069-073>076-082>088-190000-
  CENTRAL AND SOUTHEAST OHIO

CITY           SKY/WX    TMP DP  RH WIND       PRES   REMARKS
COLUMBUS       FAIR      27  13  55 S12       30.19F WCI  17
OSU AIRPORT    FAIR      25  14  63 S9        30.18S WCI  15
BOLTON FIELD   CLEAR     25  12  58 SW10      30.19F WCI  15
RICKENBACK AFB NOT AVBL
NEWARK         FAIR      26  11  52 SW7       30.18S WCI  18
MARION         FAIR      23  13  65 S14       30.13F WCI  11
LANCASTER      FAIR      27  11  51 S9        30.21S WCI  18
ZANESVILLE     FAIR      28  10  46 S9        30.19S WCI  19
NEW PHILLY     FAIR      28  11  48 VRB5      30.16S WCI  23
$$




USA.gov is the U.S. government's official web portal to all federal, state and local government web resources and services.